Location: Mentone
(34.5413°N, 85.5351°W)
Time: 22:48:21
(UTC-05:00)

Tiros 1 despin weight - Visible Passes

Search period start: 16 October 2017 00:00
Search period end: 26 October 2017 00:00
Orbit: 594 x 644 km, 48.2° (Epoch: 16 October)

Date Brightness Start Highest point End Pass type
(mag) Time Alt. Az. Time Alt. Az. Time Alt. Az.
16 Oct ? 19:03:53 10° SSW 19:07:59 32° SE 19:10:04 22° E visible
16 Oct ? 20:45:01 10° WSW 20:47:10 25° W 20:47:10 25° W visible
17 Oct ? 19:20:10 10° SW 19:24:44 68° SE 19:26:48 32° ENE visible
17 Oct ? 21:02:39 10° W 21:03:54 16° WNW 21:03:54 16° WNW visible
18 Oct ? 19:37:05 10° WSW 19:41:39 62° NW 19:43:24 36° NNE visible
19 Oct ? 19:54:29 10° W 19:58:44 35° NNW 19:59:54 30° N visible
20 Oct ? 18:29:18 10° SW 18:33:54 88° NW 18:38:34 10° NE visible
20 Oct ? 20:12:15 10° WNW 20:15:59 23° NNW 20:16:17 23° NNW visible
21 Oct ? 18:46:27 10° WSW 18:50:53 47° NNW 18:55:24 10° NE visible
21 Oct ? 20:30:13 10° NW 20:32:36 17° NNW 20:32:36 17° NNW visible
22 Oct ? 19:04:02 10° W 19:08:03 29° NNW 19:11:45 12° NNE visible
22 Oct ? 20:48:07 10° NW 20:48:49 12° NNW 20:48:49 12° NNW visible
23 Oct ? 19:21:55 10° WNW 19:25:21 20° NNW 19:27:56 14° NNE visible
24 Oct ? 19:39:52 10° NW 19:42:47 16° N 19:44:04 15° N visible
25 Oct ? 19:57:37 10° NW 20:00:11 15° N 20:00:11 15° N visible
